OneWeb SL0415

operational
NORAD ID: 51624 Int'l Des: 2022-012 Owner: ONEWEBN Country: UK Constellation: oneweb
LEOCIRCULARPOLARONEWEB_TYPE

About OneWeb SL0415

Description loading...

Live Position

Loading 3D Globe...

Upcoming Passes

Altitude History

Altitude vs Time

uPlot chart will show altitude changes over time

Two-Line Element Set

1 51624U 22012C 26038.12558179 .00000656 00000-0 18430-2 0 9997
2 51624 87.8757 62.1825 0001962 101.6085 258.5263 13.10373147192255
Epoch: Feb 7, 2026 • Age: 6 hours

Current Status

Altitude 1224.0 km
Velocity 7.24 km/s
Sub-Earth Point 2.51°N, 36.69°W
Launch Date Feb 10, 2022
Age 3.9 years
Type internet

Technical Details

Classification Payload
Mass 148.00 kg
Dry Mass 140.00 kg
Total Mass 148.00 kg
Length 1.30 m
Diameter 1.00 m
Span 5.00 m
Shape Trapezoid+2 pan
Manufacturer ONEWUS
Bus Type ARROW
Phase Status In Orbit
Owner/State ONEWEBN/UK

Large Constellations

Loading constellations...